Simultaneous Nadir Overpasses (SNOs) Predictions

Prediction of SNOs between GOES-17 and LANDSAT-8 Satellite Orbit:

Table of predicted SNOs for the next 14.0 days since TLE Epoch: 8/26/2023
Index Date Time (GOES-17) GOES-17 Lat,Lon LANDSAT-8 Lat,Lon Distance(km) Time Diff (sec)
1 08/27/2023 17:10:02 -0.00,-104.70 0.01,-104.77 7.42 80
2 08/29/2023 17:00:31 -0.00,-104.69 -0.65,-101.81 328.52 80
3 08/30/2023 05:21:54 0.00,-104.68 -0.47,-107.00 262.89 80
4 09/01/2023 05:07:02 0.00,-104.68 0.14,-104.04 73.61 80
5 09/03/2023 04:54:50 -0.00,-104.68 0.77,-101.07 410.49 80
6 09/03/2023 17:16:05 -0.00,-104.69 0.35,-106.22 175.03 80
7 09/05/2023 17:06:33 -0.00,-104.69 -0.29,-103.26 161.94 80
8 09/06/2023 05:27:57 0.01,-104.69 -0.80,-108.45 428.45 80
9 09/07/2023 16:54:21 -0.00,-104.69 -0.95,-100.31 498.83 80
10 09/08/2023 05:15:45 0.01,-104.69 -0.14,-105.50 91.68 80
